Regional Weather Roundup
Issued by NWS State College, PA

Home | Current Version | Previous Version | Graphics & Text | Print | Product List | Glossary Off
Versions: 1 2 3 4 5 6 7 8 9 10 11 12 13 14 15 16 17 18 19 20 21 22 23 24 25 26 27 28 29 30 31 32 33 34 35 36 37 38 39 40 41 42 43 44 45 46 47 48 49 50

412
ASUS41 KCTP 141310
RWRCTP

REGIONAL WEATHER ROUNDUP
NATIONAL WEATHER SERVICE STATE COLLEGE PA
800 AM EST SUN FEB 14 2016

Note: "fair" indicates few or no clouds below 12,000 feet with no
significant weather and/or obstructions to visibility.

* = STATION THAT DOES NOT REPORT PRECIPITATION /E.G. RAIN...SNOW...ETC/
    THUNDER OR FOG.

PAZ002>004-007>009-013>016-020>023-029>032-141400-
WESTERN PENNSYLVANIA

CITY           SKY/WX    TMP DP  RH WIND       PRES   REMARKS
ERIE           CLOUDY    10   3  73 E5        30.47R WCI   2
MEADVILLE      CLOUDY     6   2  83 CALM      30.39S
FRANKLIN*      CLOUDY     0  -9  65 S3        30.40S
NEW CASTLE     FAIR     -10 -14  82 NE3       30.45S
BEAVER COUNTY  NOT AVBL
BUTLER*        CLOUDY    -4  -8  84 CALM      30.45S
PITTSBURGH INT CLOUDY     0  -3  87 CALM      30.43S
PITTSBURGH     CLOUDY     4   0  83 S5        30.43R WCI  -5
INDIANA*       PTCLDY    -4  -8  84 CALM      30.46R
LATROBE        CLEAR     -4  -8  84 CALM      30.46R
WASHINGTON CO* CLOUDY    -6  -8  92 CALM      30.44R
$$

PAZ004>006-010>012-017>019-024>028-033>037-041-042-045-046-049>053-141400-
CENTRAL PENNSYLVANIA

CITY           SKY/WX    TMP DP  RH WIND       PRES   REMARKS
BRADFORD       PTCLDY    -6 -11  79 NW3       30.31R
DUBOIS         CLEAR     -5  -7  91 SW5       30.35R WCI -16
CLEARFIELD     CLEAR     -1  -5  82 CALM      30.39R
JOHNSTOWN      CLOUDY     0  -6  76 W3        30.30R
ALTOONA        CLEAR      4  -4  69 NW7       30.40R WCI  -8
STATE COLLEGE  CLEAR      3  -6  66 W5        30.43R WCI  -6
WILLIAMSPORT   PTCLDY     1 -12  54 NW6       30.52R WCI -10
SELINSGROVE    PTCLDY     3  -9  57 NE6       30.53R WCI  -8
FT INDIANTOWN  PTCLDY     7  -8  49 CALM      30.50R
CAPITAL CITY   PTCLDY    10  -6  48 W10       30.51R WCI  -4
HARRISBURG     PTCLDY    10  -5  50 NW10      30.51R WCI  -4
YORK           PTCLDY    -2  -9  72 CALM      30.50R
$$

PAZ038>040-043-044-047-048-054-055-060>062-067>071-141400-
EASTERN PENNSYLVANIA

CITY           SKY/WX    TMP DP  RH WIND       PRES   REMARKS
SCRANTON       CLEAR    N/A N/A N/A NE6       30.45R
MOUNT POCONO   CLEAR    -11 -19  68 NW12G20   30.28R WCI -31
ALLENTOWN      SUNNY      3 -12  49 NW9       30.51R WCI -12
QUAKERTOWN*    SUNNY      3 N/A N/A N3        30.49R
READING        PTCLDY     5 -10  50 N9        30.52R WCI  -9
LANCASTER      CLEAR      6  -7  54 N9        30.50R WCI  -8
COATESVILLE    MOSUNNY    5  -8  56 N7        30.49R WCI  -7
POTTSTOWN      SUNNY      5 -10  50 NW7       30.53R WCI  -7
BLUE BELL        N/A      5  -9  51 NW5       30.52R WCI  -4
DOYLESTOWN     SUNNY      2 -11  54 NW10      30.49R WCI -14
WILLOW GROVE   NOT AVBL
NORTH PHILA    MOSUNNY    8 -11  41 NW13      30.55R WCI  -8
PHILADELPHIA   MOSUNNY    9 -12  38 N18       30.55R WCI -10
$$




USA.gov is the U.S. government's official web portal to all federal, state and local government web resources and services.